Flag for Norway Weather past 2 weeks in Tønsberg, Norway

Now
52 °F

Partly sunny.


Feels Like: 47 °F
Forecast: 50 / 54 °F
Wind: 13 mph from Northwest

Location: Oseberg

Current Time: Sep 4, 2015 at 12:51:54 PM

Latest Report: Sep 4, 2015 at 11:50 AM


Visibility: N/A

Pressure: 29.86 "Hg

Humidity: 77%

Dew point: 45 °F

Location of TønsbergLocation

Historic Weather in Tønsberg — Graph

°F

Tønsberg temperature yesterday

Maximum temperature yesterday: 63 °F (at 1:20 PM)
Minimum temperature yesterday: 57 °F (at 1:50 AM)
Average temperature yesterday: 59 °F

Past Weeks' High & Low Weather Summary

 TemperatureHumidityPressure
High70 °F (Aug 24, 7:50 PM)100% (Aug 21, 5:50 PM)30.15 "Hg (Aug 21, 5:50 PM)
Low52 °F (Sep 4, 9:20 AM)43% (Aug 23, 3:50 PM)29.39 "Hg (Aug 26, 8:20 PM)
Average59 °F85%29.81 "Hg
* Reported Aug 20 11:20 AM — Sep 4 11:20 AM, Tønsberg, Weather by CustomWeather, © 2015

Note: Actual official high and low records may vary slightly from our data, if they occured in-between our weather recording intervals... More about our weather records

Advertising

Tønsberg weather history for previous 24 hours

 ConditionsComfort  
Time TempWeatherWind HumidityBarometerVisibility
11:20 AM
Fri, Sep 4
52 °FPartly sunny.12 mph77%29.86 "HgN/A
10:50 AM52 °FPartly sunny.13 mph77%29.89 "HgN/A
10:20 AM52 °FPartly sunny.16 mph77%29.89 "HgN/A
9:50 AM52 °FPartly sunny.16 mph82%29.89 "HgN/A
9:20 AM52 °FBroken clouds.18 mph82%29.89 "HgN/A
8:50 AM54 °FPartly sunny.18 mph77%29.89 "HgN/A
8:20 AM54 °FPartly sunny.20 mph77%29.86 "HgN/A
7:50 AM54 °FBroken clouds.20 mph82%29.86 "HgN/A
7:20 AM54 °FBroken clouds.22 mph82%29.86 "HgN/A
6:50 AM54 °FPassing clouds.21 mph82%29.86 "HgN/A
6:20 AM54 °FPassing clouds.22 mph88%29.89 "HgN/A
5:50 AM54 °FPassing clouds.23 mph88%29.89 "HgN/A
4:50 AM55 °FPassing clouds.25 mph88%29.86 "HgN/A
4:20 AM55 °FPassing clouds.25 mph88%29.86 "HgN/A
3:50 AM55 °FPassing clouds.24 mph88%29.86 "HgN/A
2:50 AM55 °FPassing clouds.26 mph94%29.86 "HgN/A
1:50 AM55 °FPassing clouds.24 mph94%29.86 "HgN/A
12:50 AM55 °FClear.22 mph94%29.86 "Hg10 mi
11:50 PM
Thu, Sep 3
57 °FPassing clouds.22 mph88%29.86 "HgN/A
10:50 PM57 °FClear.23 mph94%29.86 "Hg10 mi
9:50 PM57 °FClear.22 mph94%29.86 "Hg10 mi
8:50 PM57 °FSunny.23 mph94%29.86 "Hg10 mi
8:20 PM57 °FSunny.23 mph94%29.83 "Hg10 mi
7:50 PM59 °FPassing clouds.21 mph88%29.83 "HgN/A
6:50 PM61 °FPassing clouds.22 mph88%29.83 "HgN/A
6:20 PM61 °FPassing clouds.21 mph83%29.83 "HgN/A
5:50 PM61 °FPassing clouds.21 mph77%29.80 "HgN/A
4:20 PM63 °FSunny.22 mph73%29.80 "Hg10 mi
3:50 PM63 °FSunny.24 mph73%29.80 "Hg10 mi
2:50 PM63 °FSunny.24 mph73%29.80 "Hg10 mi
2:20 PM61 °FSunny.24 mph77%29.77 "Hg10 mi
1:20 PM63 °FSunny.23 mph73%29.77 "Hg10 mi
12:50 PM61 °FSunny.22 mph77%29.77 "Hg10 mi
12:20 PM61 °FSunny.21 mph72%29.77 "Hg10 mi
Weather by CustomWeather, © 2015

See weather overviewHow to use our weather pages